Location: Gisborne
(38.6530°S, 178.0040°E)
Time: 14:00:00
(UTC+13:00)

Daily predictions for brighter satellites

Satellite Brightness Start Highest point End
(mag) Time Altitude Azimuth Time Altitude Azimuth Time Altitude Azimuth
COBE Rocket 4.1 20:47:22 10° NNE 20:52:32 72° ESE 20:57:47 10° S
CZ-4 R/B 4.2 20:51:48 10° SSW 20:55:17 25° WSW 20:58:41 10° NW
Sich 1 3.1 20:51:25 10° S 20:55:43 59° E 20:59:59 10° NNE
Cosmos 2227 Rocket 4.1 20:51:14 10° SW 20:56:08 31° WNW 21:01:01 10° NNW
DMSP B5D2-2 4.3 20:51:19 10° NNE 20:56:27 55° ESE 21:01:37 10° S
SJ-6B 3.6 20:56:11 10° SE 20:59:33 29° E 21:02:53 10° NNE
Cosmos 1408 2.8 20:56:20 10° S 21:00:09 81° W 21:03:54 10° N
SL-16 R/B 2.8 20:56:07 10° NNE 21:01:11 34° ENE 21:06:18 10° SE
CZ-3B R/B 3.5 21:00:03 10° WNW 21:01:42 43° SSW 21:05:20 10° SE
Cosmos 1328 Rocket 4.1 20:58:00 10° NNE 21:02:10 40° E 21:06:24 10° SSE
Cosmos 1825 2.2 20:59:30 10° S 21:03:22 86° E 21:07:10 10° N
Cosmos 1869 3.6 21:00:56 10° NNE 21:04:48 46° E 21:08:42 10° SSE
HJ-1C 3.4 21:01:42 10° SSE 21:05:10 78° ENE 21:08:34 10° N
Cosmos 1271 Rocket 2.8 21:01:16 10° S 21:05:21 80° E 21:09:24 10° NNE
Cosmos 1655 Rocket 4.4 20:59:19 10° NNW 21:05:39 74° W 21:12:01 10° S
Cosmos 2360 Rocket 3.8 21:04:06 10° NE 21:07:12 15° E 21:10:18 10° ESE
Cosmos 1666 Rocket 3.6 21:04:07 10° S 21:08:39 69° E 21:13:06 10° NNE
Tiangong 2 2.8 21:07:18 10° W 21:10:01 25° NNW 21:12:42 10° NNE
Cosmos 1980 Rocket 3.0 21:04:47 10° NW 21:10:25 60° WSW 21:16:07 10° SSE
Lacrosse 5 1.9 21:12:06 10° SW 21:17:17 77° SE 21:22:00 12° NE
Cosmos 2228 Rocket 4.0 21:13:52 10° NNE 21:17:43 30° E 21:21:38 10° SSE
MOS 1 4.5 21:13:45 10° SSE 21:19:33 81° WSW 21:25:17 10° NNW
Cosmos 2322 Rocket 2.5 21:15:04 10° N 21:20:25 46° ENE 21:25:52 10° SE
DELTA 2 R/B(2) 3.1 21:17:52 10° WNW 21:20:36 74° NNE 21:21:56 14° E
ADEOS Rocket 3.6 21:18:52 11° NE 21:23:42 35° ESE 21:28:40 10° S
Cosmos 1242 Rocket 4.3 21:22:21 10° SSE 21:25:02 18° ESE 21:26:48 14° ENE
CZ-2D R/B 4.4 21:24:42 10° S 21:28:33 49° WSW 21:32:20 10° NNW
USA 186 1.3 21:26:20 10° SSE 21:29:13 66° E 21:31:52 10° N
Cosmos 1515 Rocket 3.8 21:25:41 10° N 21:30:03 53° E 21:34:29 10° SSE
Cosmos 1939 Rocket 3.3 21:29:58 10° S 21:34:10 70° WSW 21:38:19 10° NNW
NOAA 11 4.2 21:32:07 10° SSE 21:37:42 77° ENE 21:43:13 10° N
ARGOS 4.1 21:34:39 10° SE 21:39:11 26° E 21:42:01 17° NE
Cosmos 2227 4.2 21:35:18 10° SSW 21:41:03 84° WNW 21:46:04 13° NNE
Resurs 01 Rocket 2.3 21:38:45 10° SSE 21:42:53 35° E 21:45:44 17° NNE
Cosmos 1633 4.2 21:41:38 10° SSE 21:44:16 19° ESE 21:45:03 17° E
Cosmos 2263 Rocket 2.4 21:39:36 10° SSW 21:45:13 59° ESE 21:49:11 20° NE
Aureole 3 Rocket 3.2 21:45:11 10° SSW 21:48:43 65° W 21:53:18 10° N
CZ-2C R/B 2.7 21:48:35 16° NNE 21:52:56 70° ESE 21:58:20 10° S
Cosmos 1151 Rocket 3.4 21:50:45 10° NNW 21:55:00 64° W 21:59:22 10° S
Resurs 1-3 3.6 21:51:36 10° SSE 21:56:02 61° E 21:59:43 14° N
SL-08 RB Rocket 4.4 21:59:26 10° SSE 22:03:33 32° E 22:04:39 29° NE
Cosmos 2208 Rocket 4.4 21:59:48 10° SSW 22:04:59 62° WNW 22:09:00 17° N
Cosmos 2315 Rocket 4.2 21:59:49 10° S 22:06:12 72° W 22:12:14 11° N
Cosmos 1818 4.4 22:07:27 27° ENE 22:07:55 27° ENE 22:12:24 10° SE
CZ-4C R/B 4.2 22:06:07 10° S 22:09:28 15° SSE 22:12:34 10° ESE
H-2A R/B 3.4 22:08:36 10° NW 22:12:15 31° NNE 22:26:02 10° E
Cosmos 1356 3.8 22:12:25 43° ENE 22:12:37 43° E 22:16:00 10° SSE
MetOp-A 4.4 22:11:12 10° SSE 22:16:25 46° E 22:18:34 31° NNE
Cosmos 540 Rocket 3.7 22:11:58 10° S 22:17:07 55° ESE 22:19:09 34° NE
ATLAS 3B R/B 3.7 22:18:32 25° ENE 22:18:56 25° ENE 22:24:36 10° SE
Nadezhda 1 Rocket 4.4 22:14:19 10° S 22:20:12 43° ESE 22:22:30 31° NE
CZ-2C R/B 4.4 22:19:28 10° SE 22:22:17 19° E 22:22:17 19° E
USA 238 DEB 4.0 22:16:03 10° N 22:23:06 50° ENE 22:30:04 10° SE
USA 238 4.0 22:16:10 10° N 22:23:11 49° ENE 22:30:09 10° SE
BREEZE-M DEB (TANK) 3.5 22:24:52 10° W 22:28:23 31° SSW 22:29:45 17° SSE
Cosmos 2237 4.2 22:25:19 21° N 22:29:05 62° ENE 22:34:46 10° SSE
Cosmos 1862 4.2 22:25:11 10° SSW 22:29:06 47° W 22:31:07 25° NNW
Cosmos 1763 Rocket 4.4 22:26:25 10° SSW 22:31:24 44° WNW 22:34:29 21° NNW
Atlas Centaur 2 3.3 22:24:58 10° WNW 22:33:04 48° N 22:36:40 32° NE
Cosmos 1869 Rocket 3.5 22:31:21 10° S 22:35:46 67° E 22:36:30 55° NE
ERBS 3.6 22:33:34 10° SSW 22:36:47 32° SE 22:37:00 32° SE
Nimbus 7 Rocket 4.3 22:38:53 37° NNE 22:41:25 85° ESE 22:47:28 10° SSW
Cosmos 1486 Rocket 4.3 22:37:00 10° NNW 22:42:12 68° WSW 22:47:29 10° SSE
H-2A R/B 2.0 22:37:59 10° S 22:43:05 82° WSW 22:45:39 29° NNW
ERS-1 Rocket 3.9 22:39:55 10° SSE 22:44:02 32° E 22:44:02 32° E
SL-16 R/B 4.0 22:40:12 10° WNW 22:45:15 32° WSW 22:50:22 10° S
Mayak -0.2 22:46:27 32° ESE 22:46:27 32° ESE 22:50:04 10° S
Cosmos 2333 4.3 22:49:27 48° NE 22:50:28 54° ENE 22:56:08 10° SSE
Cosmos 2360 Rocket 2.5 22:44:50 10° NNW 22:50:30 69° WSW 22:56:14 10° SSE
Cosmos 1707 Rocket 3.4 22:55:32 73° N 22:55:58 89° WSW 23:00:23 10° S
Meteor 1-26 Rocket 4.2 22:55:59 40° N 22:58:16 89° E 23:04:05 10° S
Cosmos 1733 Rocket 4.1 22:54:14 10° SSE 22:57:44 32° ESE 22:57:44 32° ESE
Lacrosse 5 4.0 22:56:40 10° W 22:59:40 16° WNW 23:01:12 14° NW
Cosmos 1242 Rocket 4.5 22:56:48 10° SW 22:59:54 24° W 23:00:53 22° WNW
NOSS 2-1 (E) 4.3 22:52:27 10° SSW 23:00:02 89° NW 23:01:31 54° NNE
Helios 1B rocket 2.4 23:00:45 75° WNW 23:00:53 76° WNW 23:05:04 10° SSW
Cosmos 1844 Rocket 3.0 22:56:07 10° SSW 23:01:40 53° ESE 23:02:38 48° E
COSMOS 2428 2.8 23:03:03 54° ENE 23:03:14 54° ENE 23:08:51 10° SSE
Cosmos 2322 Rocket 4.4 23:00:03 10° WNW 23:04:41 25° SW 23:09:22 10° S
NOSS 3-2 (C) 4.2 23:03:17 41° NNE 23:05:34 51° ENE 23:13:00 10° SE
Cosmos 1745 Rocket 4.4 23:05:15 25° NNW 23:09:03 62° W 23:15:25 10° S
ADEOS Rocket 4.4 23:05:50 16° NW 23:09:16 28° W 23:13:59 10° SW
Cosmos 968 Rocket 3.3 23:08:48 69° N 23:09:24 81° ENE 23:14:41 10° SSE
SPOT 1/Viking Rocket 4.0 23:04:53 10° SSE 23:09:30 45° E 23:09:30 45° E
Cosmos 1709 Rocket 3.9 23:15:10 57° NNE 23:16:32 77° E 23:22:50 10° S
Terra 3.4 23:14:14 10° SE 23:16:50 24° ESE 23:16:50 24° ESE
Resurs 01 Rocket 4.1 23:15:49 10° SSW 23:19:05 20° WSW 23:22:20 10° WNW
ARGOS 4.5 23:14:31 10° S 23:19:28 37° WSW 23:23:31 14° NW
Cosmos 2322 4.2 23:18:11 23° NW 23:21:42 58° WSW 23:27:22 10° SSE
Cosmos 1862 Rocket 4.2 23:23:39 49° SE 23:23:39 49° SE 23:27:05 10° SSE
Cosmos 1809 Rocket 4.5 23:22:27 57° ENE 23:22:47 58° E 23:28:48 10° SSE
Meteor 1-25 Rocket 4.4 23:18:59 10° SSW 23:24:51 71° W 23:25:57 57° NNW
Cosmos 1606 3.8 23:25:39 42° WSW 23:25:39 42° WSW 23:29:18 10° S
CENTAUR R/B 3.4 23:28:52 40° E 23:28:52 40° E 23:34:51 10° SE
Cosmos 2263 Rocket 4.3 23:24:57 10° WSW 23:28:35 18° W 23:30:54 14° NW
Meteor 2-6 Rocket 4.2 23:33:41 66° ESE 23:33:41 66° ESE 23:38:45 10° SSE
Cosmos 2333 Rocket 2.1 23:34:59 79° ENE 23:35:00 79° ENE 23:40:50 10° SSE
Cosmos 2219 Rocket 2.0 23:36:23 84° N 23:36:33 87° ENE 23:42:19 10° SSE
Cosmos 2278 Rocket 3.4 23:33:01 10° S 23:38:03 31° ESE 23:38:32 30° ESE
Cosmos 2181 Rocket 3.8 23:33:04 10° S 23:39:19 76° E 23:39:48 72° ENE
Meteor 2-21 4.2 23:43:30 78° ENE 23:43:43 79° E 23:49:50 10° S
SeaSat 1 2.5 23:39:02 10° SSE 23:43:59 73° WSW 23:43:59 73° WSW
Meteor 1-11 Rocket 4.4 23:38:34 10° S 23:44:18 45° ESE 23:44:18 45° ESE
Cosmos 2237 Rocket 3.1 23:51:01 37° ESE 23:51:01 37° ESE 23:54:52 10° SE
Cosmos 1340 Rocket 4.3 23:50:56 36° SSW 23:50:56 36° SSW 23:53:33 10° S
